Theta_e
326 326 324 322 317 314 309 305 302 300 300 298 297 296 296 295 294 293 293 293 293 292
324 323 320 315 313 307 302 299 297 297 295 294 293 293 292 292 291 291 291 291 291 290
321 318 313 309 304 302 297 295 294 293 292 291 291 291 291 290 289 289 289 289 288 288
310 309 306 305 301 299 295 293 292 291 290 289 289 289 289 288 288 287 287 287 287 286
301 301 301 300 297 295 292 292 290 290 289 288 288 288 288 287 287 286 286 285 285 285
296 298 297 294 293 292 290 289 288 288 287 287 287 287 287 286 286 285 285 285 284 284
293 294 293 291 290 289 289 288 287 287 286 286 286 286 286 285 285 284 284 284 285 285
291 291 289 288 287 287 287 286 286 285 285 285 286 285 285 285 284 284 283 284 284 285
288 287 287 286 285 286 285 285 285 284 284 284 285 288 287 285 284 284 283 283 284 284
286 286 286 285 285 284 284 284 283 283 283 284 286 289 288 286 284 284 284 283 283 283
286 285 284 284 284 283 283 283 282 282 283 284 285 289 288 286 284 284 284 284 284 284
286 284 283 283 282 282 282 282 282 282 282 283 284 288 288 286 284 283 283 284 284 284
285 285 284 284 282 282 283 282 282 282 282 282 283 288 288 287 284 283 283 283 283 282
284 285 284 283 282 282 282 281 281 281 280 280 281 283 287 288 284 284 283 282 282 283
Wind_Speed
13 9 8 10 9 8 7 6 7 7 7 7 8 8 7 6 6 7 6 8 6 6
9 10 9 10 8 7 9 8 9 8 9 8 9 8 8 6 7 7 6 6 7 6
8 8 9 11 11 10 10 11 11 9 10 10 9 8 8 7 7 8 5 5 7 6
7 8 8 9 11 11 10 12 12 10 11 10 10 8 8 7 8 9 7 6 7 7
7 10 10 10 11 12 12 9 12 10 10 9 8 7 8 9 7 8 8 7 7 7
7 9 9 10 10 10 12 13 11 10 11 10 8 8 7 8 8 8 7 7 7 7
8 9 10 10 10 11 11 15 12 9 10 9 8 8 8 8 8 8 6 7 7 7
7 8 9 10 9 10 10 11 11 11 8 8 8 6 8 8 8 8 8 7 6 6
9 9 9 9 10 10 9 11 11 10 10 9 5 14 13 10 7 7 7 7 6 5
9 10 11 11 11 10 11 11 10 10 9 9 8 16 15 14 6 7 6 6 6 5
11 11 11 12 11 10 9 10 10 9 8 9 7 16 15 13 6 5 5 6 6 5
14 14 13 12 11 9 9 8 8 8 9 10 8 17 15 12 6 5 5 5 5 5
14 15 16 15 13 8 9 9 8 8 7 8 9 15 15 12 5 6 4 3 4 7
13 13 12 11 8 10 9 9 8 8 6 6 7 8 15 16 6 5 5 5 4 3
Wind_Direction
206 201 193 183 168 160 153 146 131 120 122 123 120 121 116 105 109 105 101 111 103 103
199 193 174 159 154 148 133 136 131 135 132 127 118 120 123 120 115 110 109 106 112 105
194 174 162 153 149 153 142 138 135 139 133 120 124 126 120 112 114 112 107 114 111 103
163 154 154 159 148 151 142 145 137 144 133 135 136 135 125 122 129 122 118 110 110 101
154 152 154 158 147 150 145 144 137 139 130 131 134 134 135 134 135 131 125 124 117 118
155 156 154 148 144 145 146 140 127 133 142 142 146 139 132 133 132 122 131 143 128 136
164 159 152 147 145 137 153 136 134 143 143 142 139 136 133 138 130 125 135 133 140 136
141 133 131 136 138 131 147 134 135 136 132 130 137 141 145 139 142 147 145 143 150 142
133 130 135 132 136 140 139 130 133 138 144 143 140 153 153 144 149 154 153 158 162 152
142 145 148 143 146 148 150 143 145 146 146 145 149 155 157 158 154 158 166 162 157 157
156 156 154 158 160 152 152 152 151 151 155 150 160 162 159 159 156 163 164 178 166 166
166 161 163 165 162 157 153 151 159 159 159 160 164 170 168 162 161 167 182 175 178 184
171 169 171 169 166 157 158 156 155 154 167 163 161 178 182 173 164 176 189 191 206 212
173 172 169 158 155 153 153 147 151 153 151 151 161 183 190 193 183 192 176 199 202 212